• In Latvia
  • List of Countries
  • For 7 days
  • Water Temperature
  • Satellite Maps
  • Weather Map
  • Weather Widgets
  • user-avatar
    Login

    Hourly Weather Bisagi

    Today, 15 August, Wednesday

    Time Temperature Precipitation Wind Pressure Humidity
    00:00 +16°C° 0.1 mm 1 mps 698 mmHg 91%
    01:00 +16°C° 0.1 mm 1 mps 698 mmHg 91%
    02:00 +15°C° 0 mm 1 mps 698 mmHg 91%
    03:00 +15°C° 0 mm 1 mps 698 mmHg 91%
    04:00 +15°C° 0 mm 1 mps 698 mmHg 92%
    05:00 +16°C° 0 mm 1 mps 698 mmHg 90%
    06:00 +16°C° 0 mm 2 mps 699 mmHg 88%
    07:00 +17°C° 0 mm 2 mps 699 mmHg 86%
    08:00 +18°C° 0.1 mm 2 mps 700 mmHg 81%
    09:00 +19°C° 0.1 mm 2 mps 700 mmHg 76%
    10:00 +20°C° 0.1 mm 3 mps 700 mmHg 71%
    11:00 +20°C° 0.1 mm 3 mps 700 mmHg 68%
    12:00 +21°C° 0.1 mm 3 mps 700 mmHg 65%
    13:00 +22°C° 0.1 mm 3 mps 701 mmHg 61%
    14:00 +22°C° 0.2 mm 3 mps 700 mmHg 62%
    15:00 +22°C° 0.2 mm 3 mps 700 mmHg 63%
    16:00 +21°C° 0.2 mm 3 mps 700 mmHg 64%
    17:00 +20°C° 0.1 mm 3 mps 700 mmHg 71%
    18:00 +18°C° 0.1 mm 2 mps 700 mmHg 77%
    19:00 +17°C° 0.1 mm 2 mps 700 mmHg 83%
    20:00 +16°C° 0 mm 1 mps 700 mmHg 85%
    21:00 +15°C° 0 mm 1 mps 701 mmHg 87%
    22:00 +15°C° 0 mm 1 mps 701 mmHg 89%
    23:00 +14°C° 0 mm 1 mps 701 mmHg 90%

    Tomorrow, 16 August, Thursday

    Time Temperature Precipitation Wind Pressure Humidity
    00:00 +14°C° 0 mm 1 mps 701 mmHg 91%
    01:00 +14°C° 0 mm 1 mps 701 mmHg 92%
    02:00 +14°C° 0 mm 1 mps 701 mmHg 93%
    03:00 +13°C° 0 mm 1 mps 701 mmHg 93%
    04:00 +13°C° 0 mm 1 mps 701 mmHg 94%
    05:00 +14°C° 0 mm 1 mps 701 mmHg 91%
    06:00 +15°C° 0 mm 1 mps 701 mmHg 88%
    07:00 +16°C° 0 mm 1 mps 702 mmHg 85%
    08:00 +19°C° 0 mm 1 mps 702 mmHg 78%
    09:00 +20°C° 0 mm 1 mps 702 mmHg 71%
    10:00 +22°C° 0 mm 1 mps 702 mmHg 64%
    11:00 +23°C° 0.1 mm 2 mps 702 mmHg 61%
    12:00 +23°C° 0.1 mm 2 mps 702 mmHg 57%
    13:00 +24°C° 0.1 mm 2 mps 702 mmHg 54%
    14:00 +24°C° 0.1 mm 2 mps 701 mmHg 55%
    15:00 +24°C° 0.1 mm 2 mps 701 mmHg 57%
    16:00 +24°C° 0.1 mm 2 mps 701 mmHg 58%
    17:00 +21°C° 0.1 mm 2 mps 701 mmHg 66%
    18:00 +19°C° 0.1 mm 2 mps 700 mmHg 74%
    19:00 +18°C° 0.1 mm 2 mps 700 mmHg 82%
    20:00 +18°C° 0 mm 1 mps 700 mmHg 85%
    21:00 +16°C° 0 mm 1 mps 700 mmHg 87%
    22:00 +15°C° 0 mm 1 mps 700 mmHg 90%
    23:00 +15°C° 0 mm 1 mps 700 mmHg 91%

    Day after tomorrow, 17 August, Friday

    Time Temperature Precipitation Wind Pressure Humidity
    00:00 +15°C° 0 mm 1 mps 700 mmHg 91%
    01:00 +14°C° 0 mm 1 mps 700 mmHg 92%
    02:00 +14°C° 0 mm 1 mps 700 mmHg 92%
    03:00 +14°C° 0 mm 1 mps 700 mmHg 92%
    04:00 +14°C° 0 mm 1 mps 699 mmHg 92%
    05:00 +15°C° 0 mm 1 mps 700 mmHg 88%
    06:00 +16°C° 0 mm 1 mps 700 mmHg 83%
    07:00 +19°C° 0 mm 1 mps 700 mmHg 78%
    08:00 +21°C° 0 mm 1 mps 701 mmHg 70%
    09:00 +23°C° 0 mm 1 mps 701 mmHg 62%
    10:00 +25°C° 0 mm 2 mps 701 mmHg 54%
    11:00 +25°C° 0 mm 2 mps 701 mmHg 51%
    12:00 +26°C° 0 mm 1 mps 701 mmHg 49%
    13:00 +26°C° 0 mm 1 mps 701 mmHg 47%
    14:00 +26°C° 0.1 mm 1 mps 700 mmHg 50%
    15:00 +26°C° 0.1 mm 1 mps 700 mmHg 52%
    16:00 +25°C° 0.1 mm 2 mps 700 mmHg 55%
    17:00 +24°C° 0.1 mm 1 mps 700 mmHg 63%
    18:00 +22°C° 0.1 mm 1 mps 700 mmHg 72%
    19:00 +20°C° 0.1 mm 1 mps 699 mmHg 80%
    20:00 +19°C° 0 mm 1 mps 700 mmHg 83%
    21:00 +18°C° 0 mm 1 mps 700 mmHg 86%
    22:00 +16°C° 0 mm 1 mps 700 mmHg 89%
    23:00 +16°C° 0 mm 1 mps 700 mmHg 89%

    18 August, Saturday

    Time Temperature Precipitation Wind Pressure Humidity
    00:00 +16°C° 0 mm 1 mps 700 mmHg 89%
    01:00 +15°C° 0 mm 1 mps 700 mmHg 90%
    02:00 +15°C° 0 mm 1 mps 700 mmHg 90%
    03:00 +15°C° 0 mm 1 mps 700 mmHg 89%
    04:00 +15°C° 0 mm 1 mps 700 mmHg 89%
    05:00 +15°C° 0 mm 0 mps 700 mmHg 85%
    06:00 +17°C° 0 mm 0 mps 701 mmHg 81%
    07:00 +18°C° 0 mm 0 mps 701 mmHg 77%
    08:00 +22°C° 0 mm 1 mps 702 mmHg 69%
    09:00 +23°C° 0 mm 1 mps 702 mmHg 60%
    10:00 +25°C° 0 mm 1 mps 703 mmHg 52%
    11:00 +26°C° 0 mm 2 mps 703 mmHg 50%
    12:00 +26°C° 0 mm 2 mps 703 mmHg 48%
    13:00 +27°C° 0 mm 2 mps 702 mmHg 47%
    14:00 +26°C° 0.1 mm 2 mps 702 mmHg 49%
    15:00 +26°C° 0.1 mm 2 mps 702 mmHg 51%
    16:00 +25°C° 0.1 mm 2 mps 702 mmHg 54%
    17:00 +24°C° 0.1 mm 2 mps 702 mmHg 61%
    18:00 +22°C° 0.1 mm 1 mps 702 mmHg 68%
    19:00 +20°C° 0.1 mm 1 mps 702 mmHg 75%
    20:00 +19°C° 0 mm 1 mps 702 mmHg 78%
    21:00 +19°C° 0 mm 1 mps 702 mmHg 81%
    22:00 +18°C° 0 mm 1 mps 702 mmHg 83%
    23:00 +16°C° 0 mm 1 mps 702 mmHg 85%

    19 August, Sunday

    Time Temperature Precipitation Wind Pressure Humidity
    00:00 +16°C° 0 mm 1 mps 702 mmHg 87%
    01:00 +16°C° 0 mm 1 mps 702 mmHg 89%
    02:00 +15°C° 0 mm 1 mps 702 mmHg 90%
    03:00 +15°C° 0 mm 1 mps 702 mmHg 91%
    04:00 +15°C° 0 mm 1 mps 703 mmHg 92%
    05:00 +16°C° 0 mm 1 mps 703 mmHg 88%
    06:00 +18°C° 0 mm 1 mps 703 mmHg 84%
    07:00 +19°C° 0 mm 1 mps 704 mmHg 81%
    08:00 +20°C° 0 mm 2 mps 704 mmHg 74%
    09:00 +21°C° 0 mm 2 mps 704 mmHg 68%
    10:00 +23°C° 0 mm 2 mps 704 mmHg 61%
    11:00 +24°C° 0.1 mm 2 mps 704 mmHg 57%
    12:00 +24°C° 0.1 mm 2 mps 704 mmHg 54%
    13:00 +25°C° 0.1 mm 3 mps 704 mmHg 50%
    14:00 +25°C° 0.1 mm 3 mps 704 mmHg 49%
    15:00 +25°C° 0.1 mm 3 mps 704 mmHg 48%
    16:00 +25°C° 0.1 mm 3 mps 704 mmHg 47%
    17:00 +21°C° 0 mm 2 mps 703 mmHg 52%
    18:00 +19°C° 0 mm 2 mps 703 mmHg 57%
    19:00 +18°C° 0 mm 1 mps 703 mmHg 62%
    20:00 +16°C° 0 mm 1 mps 703 mmHg 63%
    21:00 +15°C° 0 mm 1 mps 703 mmHg 64%
    22:00 +14°C° 0 mm 0 mps 703 mmHg 65%
    23:00 +14°C° 0 mm 1 mps 703 mmHg 66%

    20 August, Monday

    Time Temperature Precipitation Wind Pressure Humidity
    00:00 +14°C° 0 mm 1 mps 703 mmHg 66%
    01:00 +14°C° 0 mm 1 mps 703 mmHg 67%
    02:00 +14°C° 0 mm 1 mps 703 mmHg 68%
    03:00 +14°C° 0 mm 1 mps 703 mmHg 69%
    04:00 +13°C° 0 mm 1 mps 703 mmHg 71%
    05:00 +15°C° 0 mm 1 mps 703 mmHg 68%
    06:00 +16°C° 0 mm 1 mps 704 mmHg 65%
    07:00 +19°C° 0 mm 1 mps 704 mmHg 63%
    08:00 +21°C° 0 mm 1 mps 704 mmHg 58%
    09:00 +22°C° 0 mm 1 mps 705 mmHg 53%
    10:00 +24°C° 0 mm 2 mps 705 mmHg 49%
    11:00 +25°C° 0 mm 2 mps 705 mmHg 47%
    12:00 +25°C° 0 mm 2 mps 705 mmHg 46%
    13:00 +26°C° 0 mm 2 mps 705 mmHg 45%
    14:00 +26°C° 0 mm 2 mps 704 mmHg 47%
    15:00 +25°C° 0 mm 2 mps 704 mmHg 48%
    16:00 +25°C° 0 mm 3 mps 704 mmHg 50%
    17:00 +23°C° 0 mm 2 mps 704 mmHg 58%
    18:00 +20°C° 0 mm 2 mps 704 mmHg 66%
    19:00 +19°C° 0 mm 1 mps 703 mmHg 74%
    20:00 +18°C° 0 mm 1 mps 703 mmHg 76%
    21:00 +18°C° 0 mm 1 mps 703 mmHg 79%
    22:00 +15°C° 0 mm 0 mps 704 mmHg 81%
    23:00 +14°C° 0 mm 0 mps 704 mmHg 83%
    Show more